Location: The Saddle
(36.8333°N, 80.3417°W)
Time: 09:46:32
(UTC-04:00)

BlueWalker 3 - Visible Passes

Search period start: 14 October 2024 00:00
Search period end: 24 October 2024 00:00
Orbit: 472 x 484 km, 53.2° (Epoch: 13 October)

Date Brightness Start Highest point End Pass type
(mag) Time Alt. Az. Time Alt. Az. Time Alt. Az.
17 Oct 4.5 06:37:18 10° N 06:38:47 12° NNE 06:40:18 10° NE visible
18 Oct 4.6 06:08:59 10° N 06:10:08 11° NNE 06:11:17 10° NE visible
19 Oct 4.7 05:40:47 10° N 05:41:26 10° NNE 05:42:05 10° NNE visible
20 Oct 3.0 06:48:02 10° NNW 06:51:31 39° NE 06:54:59 10° ESE visible
21 Oct 3.2 06:19:54 13° NNW 06:22:50 34° NE 06:26:13 10° ESE visible
22 Oct 3.4 05:52:45 23° N 05:54:05 30° NE 05:57:23 10° E visible
23 Oct 3.7 05:25:42 26° NE 05:25:42 26° NE 05:28:31 10° E visible
23 Oct 2.7 06:59:58 10° WNW 07:03:16 32° SW 07:06:35 10° SSE visible
